STARLINK-11499, 62279

Orbit data source: Space-Track

STARLINK-11499, 62279 is a payload satellite owned by SpaceX/Seattle (US) in LEO that was launched on Sun, 08 Dec 2024 UTC via an FALCON 9 launch vehicle from the Air Force Eastern Test Range (AFETR). Payload-class satellites include a variety of spacecraft equipped with specific instruments for various scientific and technological missions. These include communications satellites like Starlink; space stations such as the ISS; scientific satellites like the Hubble; Earth observation satellites from companies like Planet Labs, Umbra, and HawkEye 360; GPS; miniature CubeSats for education and research; and military/defense satellites.

Loading next visibility...
Identifier
62279, 2024-237N
Orbit
LEO
Country
Flag of USUS
Related business
Manufacturer
SpaceX/Seattle
Mission
Operational Commercial Communications
Bus & Motor
STARLINK V2MD, Unknown motor
Mass
960 kg wet, ~910 kg dry
Launch date (UTC)
2024-12-08 (10 months ago)
Launch vehicle
FALCON 9
Launch site
Air Force Eastern Test Range (AFETR)
Object type
Payload
Rocket body
Debris
Shape & HBR
Box + 2 Pan, 18.1 m
Radar Cross Section
36.964 m², Large (>1 m²)

Expand to show TLE details & history
Last TLE update: 1 day ago

TLE from 1 day ago
0 STARLINK-11499
1 62279U 24237N   25285.97742703  .00695602  00000-0  49991-2 0  9997
2 62279  42.9987 227.6213 0001459 201.3794 158.7013 15.70767370 49747
Epoch: 2025-10-12T23:27Z
TLE epoch observation values (Epoch: 2025-10-12T23:27:29.695Z)
Latitude
-0°
Longitude
-146.03925°
Altitude
357.389 km
Speed
7.696 km/s
True Right ascension
15h 10m 29s
True Declination
0° 00' 00"
Sunlit
Object was in daylight at epoch
Visualization orbit readout
Latitude
Unknown
Longitude
Unknown
Altitude
Unknown
Speed
Unknown
Apparent Right ascension
Unknown
Apparent Declination
Unknown
Sunlit
N/A
Visualization observer readout
Local Sidereal Time
18:38:25
Azimuth
Unknown
Elevation
Unknown
Doppler factor
Unknown
Orbital elements
Apogee altitude
359.667 km
Perigee altitude
357.702 km
Semi-major axis
6,736.821 km
Eccentricity
0.00015
Inclination
42.9987°
RAAN
227.6213°
Arg. of periapsis
201.3794°
True anomaly
158.70737°
Mean anomaly
158.7013°
Eccentric anomaly
158.70434°
Mean motion
3.92519 °/min
Orbital period
91.72 mins
BSTAR
0.0049991
Loading maneuver chart data...
Computing Atmospheric mass density...
Loading historical data...
Loading historical data...
Loading historical data...
Loading historical data...
Loading historical data...
Loading historical data...
Loading historical data...

Documentation

Showing up to 5 results
|